{"data":{"norad_id":60298,"intl_designator":"2024-132W","name":"STARLINK-32124","alt_names":[],"object_type":"PAYLOAD","status":"ACTIVE","operator":null,"country":"US","launch_date":"2024-07-28","launch_site_code":"AFETR","launch_vehicle":null,"mission":null,"orbit_class":"UNKNOWN","rcs_meters":null,"size_class":null,"mass_kg":null,"dimensions":null,"purposes":["comms"],"wikipedia_slug":null,"has_3d_model":false,"image_url":null,"decayed_at":null,"tle_current":{"epoch":"2026-05-25T01:18:22.491936Z","epoch_age_seconds":73627,"freshness":"FRESH","line1":"1 60298U 24132W   26145.05442699 -.00000091  00000+0  88284-5 0  9999","line2":"2 60298  53.1613  57.6227 0001166  92.4293 267.6842 15.31700546103256","mean_motion":15.31700546,"eccentricity":0.0001166,"inclination_deg":53.1613,"raan_deg":57.6227,"arg_perigee_deg":92.4293,"mean_anomaly_deg":267.6842,"bstar":8.8284e-6,"rev_number":10325,"period_min":94.013154448533,"perigee_km":469.93978876068,"apogee_km":471.53694649641,"semimajor_km":6848.8753676285,"source":"CELESTRAK","updated_at":"2026-05-25T13:38:19.226046Z"}}}